FW8827 Weather Reports


time (UTC)temp
C
wind
direction
speed
KPH
gust
KPH
rain 1hr
cm
rain 24hr
cm
rain mn
cm
humidity
%
barometer
mb
20260510000211 17 256 1.6 1.6 0.00 0.30 0.30 62 1008.0
20260509235708 17 202 3.2 4.8 0.00 0.30 0.30 62 1007.9
20260509235204 17 260 0.0 0.0 0.00 0.30 0.30 62 1007.9
20260509234701 17 226 4.8 4.8 0.00 0.30 0.30 62 1007.7
20260509234157 17 235 3.2 3.2 0.00 0.30 0.30 62 1007.7
20260509233655 17 202 8.0 9.7 0.00 0.30 0.30 62 1007.7
20260509233153 17 233 3.2 3.2 0.00 0.30 0.30 62 1007.7
20260509232649 18 240 4.8 4.8 0.00 0.30 0.30 61 1007.7
20260509232146 17 215 11.3 11.3 0.00 0.30 0.30 61 1007.7
20260509231642 18 205 4.8 4.8 0.00 0.30 0.30 61 1007.5
20260509231140 18 257 4.8 8.0 0.00 0.30 0.30 61 1007.5
20260509230637 18 233 3.2 3.2 0.00 0.30 0.30 61 1007.3
20260509230134 18 236 6.4 9.7 0.00 0.30 0.30 60 1007.5
20260509225630 18 210 3.2 4.8 0.00 0.30 0.30 61 1007.4
20260509225125 18 257 0.0 1.6 0.00 0.30 0.30 60 1007.6
20260509224620 18 223 3.2 3.2 0.00 0.30 0.30 60 1007.4
20260509224118 18 219 9.7 11.3 0.00 0.30 0.30 59 1007.6
20260509223615 18 250 4.8 8.0 0.00 0.30 0.30 60 1007.5
20260509223113 18 248 4.8 4.8 0.00 0.30 0.30 62 1007.3
20260509222608 18 245 3.2 3.2 0.00 0.30 0.30 60 1007.4
20260509222104 18 225 3.2 3.2 0.00 0.30 0.30 59 1007.4
20260509221600 18 251 1.6 1.6 0.00 0.30 0.30 60 1007.7
20260509221056 18 195 4.8 8.0 0.00 0.30 0.30 61 1007.7
20260509220552 18 261 1.6 1.6 0.00 0.30 0.30 61 1008.1
20260509220049 18 234 6.4 8.0 0.00 0.30 0.30 60 1008.0
20260509215544 18 218 6.4 8.0 0.00 0.30 0.30 61 1007.9
20260509215042 18 251 4.8 4.8 0.00 0.30 0.30 61 1007.7
20260509214539 18 216 4.8 4.8 0.00 0.30 0.30 61 1007.8
20260509214036 18 234 4.8 4.8 0.00 0.30 0.30 62 1008.0
20260509213532 18 238 1.6 3.2 0.00 0.30 0.30 62 1007.7
20260509213029 18 247 1.6 3.2 0.00 0.30 0.30 64 1007.8
20260509212526 18 214 6.4 8.0 0.00 0.30 0.30 64 1007.8
20260509212023 18 249 1.6 3.2 0.00 0.30 0.30 65 1008.0
20260509211518 18 247 1.6 3.2 0.00 0.30 0.30 65 1008.0
20260509211016 18 255 0.0 0.0 0.00 0.30 0.30 66 1007.9
20260509210512 18 224 6.4 8.0 0.00 0.30 0.30 66 1008.1
20260509210008 18 204 6.4 8.0 0.00 0.30 0.30 66 1008.2
20260509205503 18 202 3.2 4.8 0.00 0.30 0.30 66 1008.2
20260509204958 17 263 0.0 1.6 0.00 0.30 0.30 66 1008.3
20260509204455 18 204 9.7 12.9 0.00 0.30 0.30 63 1008.3
20260509203951 18 242 1.6 1.6 0.00 0.30 0.30 64 1008.2
20260509203447 17 194 6.4 8.0 0.00 0.30 0.30 67 1008.0
20260509202945 17 245 3.2 4.8 0.00 0.30 0.30 64 1008.3
20260509202441 18 233 3.2 4.8 0.00 0.30 0.30 65 1008.4
20260509201936 18 237 1.6 1.6 0.00 0.30 0.30 65 1008.5
20260509201431 18 212 0.0 1.6 0.00 0.30 0.30 66 1008.5
20260509200929 17 244 3.2 4.8 0.00 0.30 0.30 68 1008.6
20260509200428 17 261 1.6 1.6 0.00 0.30 0.30 68 1008.6
20260509195926 17 238 3.2 3.2 0.00 0.30 0.30 69 1008.6
20260509195421 17 204 8.0 12.9 0.00 0.30 0.30 69 1008.7
20260509194920 17 259 1.6 1.6 0.00 0.30 0.30 70 1008.9
20260509194417 17 214 0.0 3.2 0.00 0.30 0.30 71 1008.8
20260509193914 16 188 8.0 9.7 0.00 0.30 0.30 70 1008.6
20260509193413 16 264 4.8 4.8 0.00 0.30 0.30 71 1009.1
20260509192910 16 248 1.6 3.2 0.00 0.30 0.30 72 1009.1
20260509192406 16 225 4.8 4.8 0.00 0.30 0.30 72 1009.2
20260509191901 16 186 11.3 12.9 0.00 0.30 0.30 73 1009.3
20260509191357 16 242 6.4 9.7 0.00 0.30 0.30 72 1009.4
20260509190853 16 212 6.4 8.0 0.00 0.30 0.30 72 1009.5
20260509190350 16 219 6.4 8.0 0.00 0.30 0.30 71 1009.3
20260509185848 16 236 4.8 8.0 0.00 0.30 0.30 74 1009.4
20260509185344 16 206 4.8 4.8 0.00 0.30 0.30 74 1009.5
20260509184842 16 191 4.8 8.0 0.00 0.30 0.30 75 1009.5
20260509184338 15 250 3.2 3.2 0.00 0.30 0.30 75 1009.4
20260509183835 16 258 0.0 0.0 0.00 0.30 0.30 74 1009.5
20260509183330 16 241 6.4 8.0 0.00 0.30 0.30 74 1009.6
20260509182827 16 238 3.2 3.2 0.00 0.30 0.30 76 1009.7
20260509182324 15 196 4.8 4.8 0.00 0.30 0.30 79 1009.5
20260509181821 15 207 8.0 9.7 0.00 0.30 0.30 78 1009.6
20260509181318 15 255 1.6 1.6 0.00 0.30 0.30 79 1009.9
20260509180815 15 252 1.6 3.2 0.00 0.30 0.30 79 1010.0
20260509180312 15 254 3.2 4.8 0.00 0.30 0.30 79 1010.1
20260509175808 15 221 3.2 4.8 0.00 0.30 0.30 78 1009.9
20260509175306 15 236 3.2 3.2 0.00 0.30 0.30 78 1009.9
20260509174801 15 276 3.2 4.8 0.00 0.30 0.30 78 1010.0
20260509174256 14 190 9.7 9.7 0.00 0.30 0.30 79 1009.7
20260509173752 15 221 3.2 3.2 0.00 0.30 0.30 80 1010.1
20260509173248 15 203 3.2 4.8 0.00 0.30 0.30 80 1010.1
20260509172744 15 249 4.8 4.8 0.00 0.30 0.30 81 1009.7
20260509172241 14 198 4.8 8.0 0.00 0.30 0.30 81 1009.5
20260509171736 14 262 1.6 1.6 0.00 0.30 0.30 83 1009.7
20260509171233 13 250 1.6 3.2 0.00 0.30 0.30 84 1009.4
20260509170730 13 234 3.2 3.2 0.00 0.30 0.30 86 1009.7
20260509170226 13 214 6.4 8.0 0.00 0.30 0.30 85 1009.7
20260509165724 13 202 8.0 8.0 0.00 0.30 0.30 85 1009.4
20260509165219 13 218 8.0 9.7 0.00 0.30 0.30 85 1009.4
20260509164716 13 227 8.0 8.0 0.00 0.30 0.30 86 1009.4
20260509164211 13 260 4.8 4.8 0.00 0.30 0.30 88 1009.5
20260509163709 13 213 6.4 8.0 0.00 0.30 0.30 90 1009.5
20260509163206 13 226 8.0 9.7 0.00 0.30 0.30 91 1009.2
20260509162703 12 225 4.8 4.8 0.00 0.30 0.30 93 1009.4
20260509162159 12 232 4.8 4.8 0.00 0.30 0.30 94 1009.6
20260509161654 12 214 4.8 4.8 0.00 0.30 0.30 94 1009.9
20260509161150 12 275 3.2 4.8 0.00 0.30 0.30 96 1009.4
20260509160646 11 236 4.8 4.8 0.00 0.30 0.30 95 1009.4
20260509160141 11 222 4.8 4.8 0.00 0.30 0.30 95 1009.4
20260509155638 11 199 8.0 9.7 0.00 0.30 0.30 95 1009.5
20260509155134 11 228 3.2 3.2 0.00 0.30 0.30 95 1009.5
20260509154630 11 254 1.6 1.6 0.00 0.30 0.30 96 1009.5
20260509154127 11 253 1.6 1.6 0.00 0.30 0.30 96 1009.6
20260509153624 11 261 0.0 0.0 0.18 0.30 0.30 96 1009.6
20260509153121 11 262 0.0 0.0 0.18 0.30 0.30 96 1009.7
20260509152617 11 261 0.0 1.6 0.00 0.28 0.28 96 1009.3
20260509152114 11 233 3.2 3.2 0.00 0.28 0.28 95 1009.3
20260509151610 11 250 1.6 1.6 0.00 0.28 0.28 96 1009.4
20260509151109 11 235 3.2 3.2 0.00 0.28 0.28 96 1009.4
20260509150606 11 260 0.0 0.0 0.00 0.28 0.28 96 1009.7
20260509150104 11 245 3.2 3.2 0.00 0.28 0.28 96 1009.5
20260509145559 11 231 3.2 3.2 0.00 0.28 0.28 96 1009.7
20260509145055 11 259 1.6 3.2 0.13 0.28 0.28 96 1009.5
20260509144552 11 250 3.2 3.2 0.13 0.28 0.28 96 1009.4
20260509144049 11 261 3.2 4.8 0.00 0.25 0.25 96 1009.5
20260509143546 11 242 3.2 3.2 0.00 0.25 0.25 96 1009.5
20260509143044 11 209 6.4 8.0 0.00 0.25 0.25 96 1009.5
20260509142539 11 184 4.8 4.8 0.00 0.25 0.25 96 1009.7
20260509142035 11 240 3.2 3.2 0.00 0.25 0.25 96 1009.6
20260509141531 10 251 1.6 1.6 0.00 0.25 0.25 96 1009.6
20260509141028 11 218 6.4 8.0 0.00 0.25 0.25 96 1009.6
20260509140525 10 239 1.6 3.2 0.00 0.25 0.25 96 1009.7
20260509140023 10 233 3.2 3.2 0.00 0.25 0.25 96 1009.6
20260509135520 10 218 4.8 4.8 0.00 0.25 0.25 96 1009.6
20260509135017 10 236 4.8 4.8 0.00 0.25 0.25 96 1009.5
20260509134514 10 243 1.6 3.2 0.00 0.25 0.25 96 1009.7
20260509134012 10 238 1.6 3.2 0.00 0.25 0.25 96 1009.9
20260509133508 10 229 4.8 4.8 0.00 0.25 0.25 96 1009.9
20260509133007 10 246 4.8 8.0 0.18 0.25 0.25 96 1010.1
20260509132505 10 248 1.6 3.2 0.18 0.25 0.25 96 1009.7
20260509132002 10 262 0.0 1.6 0.13 0.23 0.23 96 1009.6
20260509131458 10 241 3.2 3.2 0.13 0.23 0.23 96 1010.0
20260509130955 10 262 0.0 0.0 0.18 0.20 0.20 95 1009.6
20260509130450 10 224 4.8 4.8 0.18 0.20 0.20 95 1009.9
20260509125948 10 231 3.2 4.8 0.13 0.18 0.18 95 1009.7
20260509125444 10 259 1.6 1.6 0.13 0.18 0.18 95 1010.1
20260509124940 10 239 4.8 4.8 0.00 0.15 0.15 95 1010.1
20260509124438 10 252 0.0 1.6 0.18 0.15 0.15 95 1010.3
20260509123935 10 234 3.2 3.2 0.18 0.15 0.15 95 1010.2
20260509123432 10 260 0.0 0.0 0.00 0.13 0.13 95 1010.1
20260509122928 10 220 6.4 8.0 0.00 0.13 0.13 95 1010.0
20260509122425 10 243 1.6 3.2 0.13 0.13 0.13 94 1010.2
20260509121921 10 255 1.6 1.6 0.13 0.13 0.13 94 1010.2
20260509121419 10 244 1.6 3.2 0.18 0.10 0.10 94 1010.6
20260509120917 10 249 3.2 3.2 0.18 0.10 0.10 94 1010.2
20260509120414 10 236 4.8 4.8 0.00 0.08 0.08 94 1010.3
20260509115912 10 229 4.8 8.0 0.00 0.08 0.08 94 1010.4
20260509115409 10 239 1.6 1.6 0.00 0.08 0.08 93 1010.1
20260509114907 10 197 8.0 9.7 0.00 0.08 0.08 93 1010.0
20260509114405 10 257 1.6 1.6 0.00 0.08 0.08 93 1010.1
20260509113904 10 244 1.6 1.6 0.13 0.08 0.08 93 1010.1
20260509113401 10 241 1.6 1.6 0.13 0.08 0.08 92 1010.0
20260509112857 10 232 4.8 4.8 0.18 0.05 0.05 92 1010.0
20260509112354 10 254 3.2 3.2 0.18 0.05 0.05 91 1009.9
20260509111852 10 246 1.6 3.2 0.00 0.03 0.03 91 1010.0
20260509111348 10 249 0.0 0.0 0.00 0.03 0.03 91 1010.0
20260509110847 10 207 6.4 8.0 0.00 0.03 0.03 90 1009.9
20260509110342 10 256 0.0 0.0 0.00 0.03 0.03 90 1009.9
20260509105841 10 213 4.8 4.8 0.00 0.03 0.03 90 1010.0
20260509105339 10 205 8.0 9.7 0.00 0.03 0.03 91 1009.7
20260509104835 10 229 4.8 4.8 0.00 0.03 0.03 91 1009.6
20260509104331 10 253 3.2 4.8 0.00 0.03 0.03 91 1009.6
20260509103829 10 259 1.6 3.2 0.00 0.03 0.03 91 1009.9
20260509103326 10 248 3.2 3.2 0.00 0.03 0.03 91 1009.7
20260509102825 10 235 6.4 9.7 0.00 0.03 0.03 91 1009.7
20260509102322 10 258 1.6 1.6 0.00 0.03 0.03 91 1009.6
20260509101818 10 258 3.2 3.2 0.00 0.03 0.03 91 1009.4
20260509101314 10 198 6.4 8.0 0.00 0.03 0.03 91 1009.5
20260509100812 10 184 4.8 4.8 0.00 0.03 0.03 91 1009.6
20260509100309 10 255 1.6 1.6 0.00 0.03 0.03 91 1009.3
20260509095805 10 245 0.0 1.6 0.00 0.03 0.03 91 1009.7
20260509095305 10 251 1.6 3.2 0.13 0.03 0.03 91 1010.0
20260509094800 10 248 3.2 3.2 0.13 0.03 0.03 92 1009.6
20260509094256 10 252 1.6 3.2 0.13 0.03 0.03 92 1009.7
20260509093754 10 238 3.2 3.2 0.00 0.00 0.00 92 1009.7
20260509093251 10 233 3.2 3.2 0.00 0.00 0.00 93 1010.1
20260509092750 10 260 0.0 1.6 0.00 0.00 0.00 93 1010.1
20260509092247 10 257 0.0 0.0 0.00 0.00 0.00 94 1010.2
20260509091745 10 251 1.6 1.6 0.00 0.00 0.00 94 1010.3
20260509091241 10 259 1.6 1.6 0.00 0.00 0.00 94 1010.3
20260509090739 10 254 0.0 1.6 0.00 0.00 0.00 94 1010.1
20260509090236 10 247 1.6 1.6 0.00 0.00 0.00 94 1010.3
20260509085734 9 256 0.0 0.0 0.00 0.00 0.00 95 1010.4
20260509085231 9 259 0.0 0.0 0.00 0.00 0.00 95 1010.3
20260509084727 9 250 1.6 1.6 0.00 0.00 0.00 95 1010.4
20260509084224 9 253 1.6 1.6 0.00 0.00 0.00 94 1010.3
20260509083722 9 246 1.6 3.2 0.00 0.00 0.00 94 1010.4
20260509083218 9 255 0.0 0.0 0.00 0.00 0.00 94 1010.4
20260509082715 9 246 1.6 3.2 0.00 0.00 0.00 94 1010.4
20260509082212 9 255 0.0 1.6 0.00 0.00 0.00 94 1010.3
20260509081709 9 253 1.6 1.6 0.00 0.00 0.00 94 1010.2
20260509081206 9 260 0.0 0.0 0.00 0.00 0.00 94 1010.1
20260509080704 9 263 0.0 0.0 0.00 0.00 0.00 93 1010.1
20260509080202 9 258 0.0 0.0 0.00 0.00 0.00 94 1010.2
20260509075700 9 273 0.0 0.0 0.00 0.00 0.00 93 1010.2
20260509075157 9 262 0.0 0.0 0.00 0.00 0.00 93 1010.0
20260509074654 9 262 0.0 0.0 0.00 0.00 0.00 93 1010.3
20260509074150 9 261 0.0 0.0 0.00 0.00 0.00 93 1010.2
20260509073647 9 261 0.0 0.0 0.00 0.00 0.00 93 1009.9
20260509073144 9 263 0.0 0.0 0.00 0.00 0.00 93 1009.9
20260509072641 9 263 0.0 0.0 0.00 0.00 0.00 93 1009.6
20260509072137 9 265 0.0 0.0 0.00 0.00 0.00 93 1009.5
20260509071634 9 266 0.0 0.0 0.00 0.00 0.00 93 1009.6
20260509071131 9 262 0.0 0.0 0.00 0.00 0.00 93 1009.5
20260509070628 9 264 0.0 0.0 0.00 0.00 0.00 93 1009.6
20260509070124 9 264 0.0 0.0 0.00 0.00 0.00 93 1009.6
20260509065620 9 263 0.0 0.0 0.00 0.00 0.00 93 1009.7
20260509065116 9 261 0.0 0.0 0.00 0.00 0.00 93 1009.7
20260509064614 9 261 0.0 0.0 0.00 0.00 0.00 93 1010.0
20260509064112 9 262 0.0 0.0 0.00 0.00 0.00 93 1009.9
20260509063608 9 259 0.0 0.0 0.00 0.00 0.00 93 1010.4
20260509063105 9 261 0.0 0.0 0.00 0.00 0.00 93 1010.2
20260509062602 9 259 0.0 0.0 0.00 0.00 0.00 93 1010.5
20260509062059 9 262 0.0 0.0 0.00 0.00 0.00 93 1010.6
20260509061556 9 262 0.0 0.0 0.00 0.00 0.00 93 1010.6
20260509061053 9 257 0.0 0.0 0.00 0.00 0.00 93 1010.4
20260509060551 9 260 0.0 0.0 0.00 0.00 0.00 93 1010.5
20260509060046 9 231 3.2 3.2 0.00 0.00 0.00 93 1010.8
20260509055542 9 256 0.0 0.0 0.00 0.00 0.00 93 1010.6
20260509055038 9 256 0.0 0.0 0.00 0.00 0.00 93 1010.8
20260509054535 9 255 1.6 1.6 0.00 0.00 0.00 93 1010.8
20260509054033 9 196 0.0 0.0 0.00 0.00 0.00 93 1010.9
20260509053531 9 270 0.0 0.0 0.00 0.00 0.00 93 1010.6
20260509053028 9 265 0.0 0.0 0.00 0.00 0.00 93 1010.7
20260509052525 9 266 0.0 0.0 0.00 0.00 0.00 93 1010.9
20260509052023 9 266 0.0 0.0 0.00 0.00 0.00 93 1011.0
20260509051521 9 265 0.0 0.0 0.00 0.00 0.00 92 1011.1
20260509051018 9 268 0.0 0.0 0.00 0.00 0.00 92 1010.8
20260509050515 9 268 0.0 1.6 0.00 0.00 0.00 92 1011.0
20260509050011 9 266 0.0 0.0 0.00 0.00 0.00 92 1011.2
20260509045508 9 265 0.0 0.0 0.00 0.00 0.00 92 1010.9
20260509045005 9 268 0.0 0.0 0.00 0.00 0.00 92 1010.8
20260509044503 9 277 1.6 1.6 0.00 0.00 0.00 92 1011.1
20260509044000 9 265 0.0 0.0 0.00 0.00 0.00 92 1011.2
20260509043456 9 296 1.6 3.2 0.00 0.00 0.00 92 1011.1
20260509042951 9 266 0.0 0.0 0.00 0.00 0.00 92 1011.2
20260509042449 9 220 0.0 0.0 0.00 0.00 0.00 92 1011.3
20260509041944 9 265 0.0 0.0 0.00 0.00 0.00 92 1011.0
20260509041442 9 276 1.6 1.6 0.00 0.00 0.00 92 1011.4
20260509040940 9 268 0.0 0.0 0.00 0.00 0.00 92 1011.5
20260509040438 9 266 0.0 0.0 0.00 0.00 0.00 92 1011.5
20260509035934 9 275 1.6 1.6 0.00 0.05 0.05 92 1011.7
20260509035431 10 271 0.0 1.6 0.00 0.05 0.05 91 1011.7
20260509034927 10 268 0.0 0.0 0.00 0.05 0.05 91 1012.0
20260509034425 10 220 0.0 0.0 0.00 0.05 0.05 91 1011.9
20260509033922 10 268 0.0 0.0 0.00 0.05 0.05 91 1011.9
20260509033419 10 272 0.0 0.0 0.00 0.05 0.05 91 1012.3
20260509032915 10 265 0.0 0.0 0.00 0.05 0.05 91 1012.3
20260509032413 10 270 0.0 0.0 0.00 0.05 0.05 91 1012.2
20260509031911 10 272 0.0 0.0 0.00 0.05 0.05 90 1012.3
20260509031408 10 270 0.0 1.6 0.18 0.05 0.05 90 1012.4
20260509030905 10 357 0.0 1.6 0.18 0.05 0.05 90 1012.4
20260509030404 10 272 0.0 0.0 0.00 0.03 0.03 90 1012.5
20260509025900 10 266 0.0 0.0 0.00 0.03 0.03 90 1012.6
20260509025355 10 299 1.6 3.2 0.00 0.03 0.03 90 1012.7
20260509024851 10 263 0.0 0.0 0.00 0.03 0.03 89 1012.6
20260509024347 10 282 3.2 3.2 0.00 0.03 0.03 89 1012.6
20260509023845 10 266 0.0 0.0 0.18 0.03 0.03 88 1012.7
20260509023342 10 262 0.0 0.0 0.18 0.03 0.03 88 1012.7
20260509022838 10 265 0.0 0.0 0.18 0.03 0.03 88 1012.7
20260509022336 10 266 1.6 1.6 0.00 0.00 0.00 87 1012.7
20260509021832 10 280 1.6 1.6 0.00 0.00 0.00 87 1012.6
20260509021329 10 264 0.0 1.6 0.00 0.00 0.00 87 1012.4
20260509020827 10 291 1.6 1.6 0.00 0.00 0.00 85 1012.7
20260509020325 11 270 1.6 1.6 0.00 0.00 0.00 85 1012.3
20260509015822 11 264 0.0 0.0 0.00 0.00 0.00 83 1012.3
20260509015320 11 259 1.6 1.6 0.00 0.00 0.00 83 1012.3
20260509014817 11 277 1.6 1.6 0.00 0.00 0.00 83 1011.9
20260509014314 11 298 1.6 1.6 0.00 0.00 0.00 84 1012.0
20260509013810 11 266 1.6 3.2 0.00 0.00 0.00 84 1011.8
20260509013307 11 257 0.0 1.6 0.00 0.00 0.00 82 1011.8
20260509012803 11 264 0.0 0.0 0.00 0.00 0.00 81 1011.9
20260509012300 11 265 0.0 0.0 0.00 0.00 0.00 81 1011.7
20260509011757 11 265 0.0 1.6 0.00 0.00 0.00 79 1011.4
20260509011254 11 275 1.6 1.6 0.00 0.00 0.00 79 1011.6
20260509010752 11 270 1.6 1.6 0.00 0.00 0.00 79 1011.5
20260509010248 11 254 1.6 1.6 0.00 0.00 0.00 79 1011.3
20260509005746 11 263 0.0 0.0 0.00 0.00 0.00 76 1011.5
20260509005244 12 263 0.0 0.0 0.00 0.00 0.00 75 1011.3
20260509004743 12 277 1.6 1.6 0.00 0.00 0.00 75 1011.3
20260509004241 12 275 0.0 1.6 0.00 0.00 0.00 76 1011.0
20260509003739 11 266 0.0 0.0 0.00 0.00 0.00 76 1011.0
20260509003236 11 256 0.0 0.0 0.00 0.00 0.00 76 1011.1
20260509002733 11 257 0.0 0.0 0.00 0.00 0.00 77 1011.1
20260509002231 12 255 0.0 0.0 0.00 0.00 0.00 77 1011.0
20260509001728 12 264 0.0 0.0 0.00 0.00 0.00 77 1011.0
20260509001224 12 268 0.0 0.0 0.00 0.00 0.00 77 1010.8
20260509000722 12 262 0.0 1.6 0.00 0.00 0.00 77 1010.9